Regional Weather Roundup
Issued by NWS

Home | Current Version | Previous Version | Graphics & Text | Print | Product List | Glossary On
Versions: 1 2 3 4 5 6 7 8 9 10 11 12 13 14 15 16 17 18 19 20 21 22 23 24 25 26 27 28 29 30 31 32 33 34 35 36 37 38 39 40 41 42 43 44 45 46 47 48 49 50
000
ASUS43 KFSD 252310
RWRSD

WEATHER ROUNDUP FOR SOUTH DAKOTA
NATIONAL WEATHER SERVICE SIOUX FALLS SD
500 PM CST SUN JAN 25 2015

NOTE: "FAIR" INDICATES FEW OR NO CLOUDS BELOW 12,000 FEET WITH NO
SIGNIFICANT WEATHER AND/OR OBSTRUCTIONS TO VISIBILITY.


SDZ001>005-009-010-012>017-260000-
NORTHWEST AND NORTH CENTRAL SOUTH DAKOTA

CITY           SKY/WX    TMP DP  RH WIND       PRES   REMARKS
BUFFALO          N/A     50  35  56 W13       29.84S
FAITH            N/A     44  26  49 S9        29.92F
MOBRIDGE       CLOUDY    40  32  73 S5        29.93F
$$

SDZ012>016-024>037-041>051-057-063-072>074-260000-
SOUTHWEST AND SOUTH CENTRAL SOUTH DAKOTA

CITY           SKY/WX    TMP DP  RH WIND       PRES   REMARKS
RAPID CTY ARPT CLOUDY    47  23  38 SE7       29.95F
PIERRE         MOCLDY    42  29  59 S5        29.97F
CUSTER         PTCLDY    42  30  62 W14       29.99F
ELLSWORTH AFB  CLOUDY    49  23  36 S8        29.94F
PHILIP         MOCLDY    47  23  38 CALM      29.97F
PINE RIDGE     CLOUDY    45  34  65 SW6       30.00R
WINNER         FAIR      41  30  65 CALM      30.01F
$$

SDZ004>011-016>023-039-040-260000-
NORTHEAST SOUTH DAKOTA

CITY           SKY/WX    TMP DP  RH WIND       PRES   REMARKS
ABERDEEN       CLOUDY    31  27  85 S7        30.00F WCI  24
WATERTOWN      CLOUDY    30  25  81 W6        29.98F WCI  24
SISSETON         N/A     24  20  84 S3        29.99F
$$

SDZ017-020-022-023-036>040-048>070-260000-
SOUTHEAST SOUTH DAKOTA

CITY           SKY/WX    TMP DP  RH WIND       PRES   REMARKS
SIOUX FALLS    CLOUDY    34  31  88 NW5       30.03S WCI  30
HURON          CLOUDY    34  30  85 CALM      30.02F
CHAMBERLAIN    MOCLDY    38  32  80 CALM      30.00F
MITCHELL       CLOUDY    36  31  82 CALM      30.05S
YANKTON        CLOUDY    36  30  80 NW3       30.06S
$$

ABBREVIATIONS USED IN REMARKS
   TC - TEMPERATURE IN CELSIUS
  WCI - WIND CHILL INDEX
   HX - HEAT INDEX
  VSB - VISIBILITY



USA.gov is the U.S. government's official web portal to all federal, state and local government web resources and services.